Wind_Speed
18 16 17 22 21 16 21 12 9 1 6 15 8 12 19 19 12 8 5 6 2 4 7 11 9 7 5 0 1 2 4 1 4 5 6 5 7 3 3 7 5 3 7 18 32
17 16 16 16 29 13 14 22 16 7 3 5 12 6 12 10 13 6 11 13 11 11 6 6 4 9 1 2 2 4 4 2 3 4 4 4 8 7 6 6 6 7 13 29 31
18 15 13 11 15 12 16 14 21 15 8 7 3 10 8 8 5 3 14 15 11 13 7 6 7 2 3 2 2 3 4 4 3 4 3 5 4 4 10 4 8 17 15 16 23
15 14 11 12 16 19 15 15 16 21 13 7 4 1 14 1 7 1 13 14 9 11 7 3 3 1 3 5 2 5 4 4 2 6 4 4 2 5 4 4 7 19 20 16 12
13 12 10 11 10 18 14 16 22 26 21 14 15 7 7 5 5 4 4 9 13 13 9 3 3 3 4 5 4 4 3 5 3 6 6 4 5 4 5 3 9 16 17 15 13
14 13 12 10 9 12 10 11 22 26 26 26 14 7 1 7 3 7 4 4 9 9 4 5 4 3 4 3 4 3 7 6 4 5 5 5 2 2 2 6 10 11 10 11 14
14 13 16 11 12 12 14 6 24 23 32 25 25 11 2 8 4 6 5 5 2 4 4 6 2 3 3 5 2 7 5 5 2 2 2 1 2 3 2 6 9 9 9 9 14
17 14 14 11 10 8 9 7 20 25 25 21 21 15 6 10 8 10 5 9 4 3 6 7 4 4 5 3 4 5 5 4 1 4 1 3 3 2 4 7 7 7 7 8 9
16 15 13 9 10 9 7 8 17 17 28 28 19 8 4 7 6 10 9 8 5 2 5 4 1 4 3 7 4 1 5 4 2 2 3 2 4 2 2 5 6 4 5 8 8
16 14 10 10 7 7 4 7 17 13 20 25 13 7 7 6 8 8 9 11 6 3 3 2 3 4 3 3 6 6 5 4 6 5 3 3 5 2 2 4 7 6 6 5 8
15 12 10 9 7 6 1 19 6 5 2 4 10 2 9 16 16 6 11 9 3 2 5 3 4 6 9 7 4 7 5 6 1 2 4 5 4 9 7 5 7 8 8 6 6
13 11 9 7 5 3 4 2 4 5 8 9 10 8 15 12 6 9 16 1 4 5 5 4 4 7 8 7 4 3 4 4 3 1 2 2 8 9 7 8 9 10 9 8 6
12 10 6 6 4 4 11 3 5 3 5 2 4 4 6 5 5 14 15 4 4 4 4 6 4 7 6 5 7 3 5 6 6 4 1 1 6 7 7 8 5 7 7 8 10
12 8 6 4 3 10 6 11 5 7 4 7 6 5 3 5 3 7 9 6 4 9 5 2 4 8 6 5 6 5 4 8 9 4 3 2 5 5 3 5 7 7 8 8 7
11 6 5 7 5 7 9 14 4 5 5 11 6 15 10 9 12 6 4 2 7 7 3 5 3 7 5 6 6 4 10 8 5 5 3 2 0 7 2 4 6 6 5 7 7
10 7 6 5 1 7 19 14 6 2 3 5 8 12 15 7 3 6 4 2 2 4 6 1 1 3 1 4 6 7 11 9 6 4 1 7 7 5 4 6 4 4 6 6 7
8 9 6 4 2 25 21 3 3 2 1 5 6 12 14 8 9 12 14 6 6 7 2 4 4 3 2 9 5 7 6 3 3 2 5 3 3 6 4 1 6 8 7 6 7
12 11 4 1 17 16 7 3 2 1 2 2 5 17 6 13 6 13 14 10 5 5 5 5 1 3 2 4 7 8 6 5 8 5 4 3 7 6 2 6 6 6 7 5 6
17 10 6 12 13 9 4 1 2 3 2 6 13 9 4 10 7 10 14 12 6 6 6 5 2 1 3 2 7 5 3 3 6 2 3 4 5 4 2 2 4 6 6 6 6
16 7 8 8 9 3 3 2 3 3 6 2 3 1 7 10 6 9 14 8 5 6 1 4 5 1 1 2 1 4 7 3 3 4 3 4 3 5 7 8 7 6 7 7 6
9 3 9 4 0 4 2 3 2 1 4 6 2 3 4 7 6 9 15 4 10 7 5 6 4 4 4 5 7 3 3 4 4 4 5 3 5 5 8 9 10 8 8 8 8
4 3 7 5 3 0 2 2 2 2 4 4 2 3 4 7 5 5 10 5 10 7 7 4 5 4 4 0 1 2 5 5 4 4 2 2 5 3 4 8 8 8 8 8 7
3 1 5 5 3 1 2 3 3 2 2 2 1 3 0 3 3 4 7 6 12 8 8 6 2 6 3 5 2 4 4 4 3 3 5 5 5 1 3 3 4 8 8 8 8
3 2 3 3 1 3 3 1 2 1 2 1 2 2 3 2 4 3 7 2 8 8 5 4 4 6 8 6 7 6 10 7 7 3 4 5 3 5 7 8 7 7 8 8 8
3 2 2 3 2 2 4 2 2 1 0 1 2 1 3 2 1 1 2 5 3 8 3 3 4 3 2 5 5 6 13 18 16 12 7 7 10 8 9 11 9 9 8 9 9
3 3 1 2 3 4 5 4 5 1 2 1 2 7 3 5 4 5 1 2 4 3 4 2 1 3 2 3 1 4 14 17 20 14 12 7 7 6 2 4 6 10 11 11 10
2 1 3 2 3 4 3 3 5 5 5 5 5 3 2 2 5 5 7 7 5 8 11 4 5 3 4 3 3 8 8 10 9 12 13 18 20 11 8 9 9 9 12 12 12
Wind_Direction
301 285 292 310 320 215 222 240 250 153 98 86 117 137 157 175 197 228 235 210 227 314 312 312 294 302 268 255 87 73 73 271 328 155 184 141 103 13 83 93 49 41 154 147 149
306 298 298 303 318 215 202 205 233 213 167 320 8 58 95 149 170 223 247 236 259 277 305 336 338 352 27 204 63 90 107 152 306 331 136 98 103 122 100 85 47 60 90 136 149
312 297 283 298 292 316 209 192 199 208 229 167 269 12 26 151 141 223 229 221 248 249 275 295 298 225 196 207 115 112 138 159 348 333 11 111 90 94 123 144 164 146 143 146 150
322 326 279 302 294 311 202 192 192 198 185 169 129 303 360 230 121 33 179 208 217 249 247 247 255 224 149 151 95 100 53 105 3 357 57 79 107 86 101 168 180 159 154 151 159
311 335 317 307 298 296 306 198 182 177 175 146 123 98 21 325 75 25 163 178 196 212 209 217 211 215 172 152 111 97 129 63 102 65 54 74 63 142 121 119 110 137 155 159 164
305 323 326 323 301 278 272 214 187 185 175 180 193 224 85 313 352 19 11 181 190 198 215 220 234 189 107 91 95 114 105 126 73 70 49 84 51 99 155 127 107 135 161 167 170
294 301 319 292 310 298 286 316 193 187 187 187 210 199 134 246 308 355 331 312 249 256 178 233 230 111 111 100 305 132 93 92 121 153 92 76 62 206 169 116 137 156 163 182 183
314 290 307 289 320 297 319 325 189 191 184 172 163 155 185 230 264 267 298 302 280 268 180 186 171 105 103 115 41 102 82 121 206 143 272 119 235 254 273 148 163 179 205 188 205
303 306 301 301 328 296 302 348 186 201 180 157 145 126 165 169 207 240 239 281 254 192 147 174 107 117 87 115 60 208 163 154 187 194 135 146 197 193 59 131 185 231 242 228 214
299 303 290 305 309 299 297 329 175 155 106 125 102 104 164 185 170 179 190 280 251 154 71 121 85 108 88 111 181 175 161 151 168 210 152 164 239 221 206 169 217 244 264 267 195
288 289 283 292 302 309 296 107 102 98 339 148 154 284 134 137 142 162 178 311 223 227 157 199 115 173 181 190 147 133 140 119 55 334 132 219 258 255 232 216 211 225 242 244 197
273 279 267 275 271 284 98 64 343 105 99 27 146 85 99 124 121 154 154 306 180 192 147 79 188 208 182 197 134 105 123 94 58 126 125 198 266 254 237 221 199 203 218 227 119
254 267 256 261 251 151 119 162 67 84 82 46 146 110 140 121 114 160 167 157 273 213 163 146 187 202 177 169 142 161 163 156 144 176 126 28 283 247 256 245 201 210 190 199 165
240 254 225 221 185 152 130 149 123 38 112 149 179 178 135 123 109 178 168 144 196 221 164 142 296 158 143 173 138 165 153 119 124 105 219 127 277 291 217 207 202 204 199 191 156
229 236 204 193 319 169 170 165 154 33 152 155 163 165 165 157 143 164 145 295 176 166 153 215 160 128 127 168 128 174 120 117 105 91 82 262 330 271 161 224 212 201 144 121 108
206 180 177 178 3 167 143 141 84 98 182 165 151 167 161 174 133 118 149 218 242 84 45 101 268 51 101 51 113 129 81 49 47 74 300 212 173 262 208 210 154 142 136 119 95
178 161 140 174 138 144 131 73 95 206 329 160 164 158 158 153 154 158 166 173 173 122 116 31 2 333 74 85 35 98 84 36 9 351 227 354 193 249 243 185 153 153 156 137 114
145 140 67 155 148 128 77 82 149 166 203 266 153 149 167 146 155 165 162 175 231 109 127 140 291 202 146 151 166 170 162 158 196 194 216 353 223 251 178 127 106 125 160 150 137
131 111 51 146 149 139 68 143 23 55 179 177 136 151 142 155 131 158 179 186 200 168 134 132 18 342 96 84 154 221 178 147 104 31 70 215 278 300 130 154 157 159 155 176 170
115 84 32 169 139 78 81 40 20 338 323 333 110 196 164 162 122 167 166 197 216 188 159 149 115 219 30 76 66 146 158 68 349 128 247 266 264 234 211 211 204 198 202 196 176
72 61 352 115 177 37 134 163 133 330 359 18 96 123 145 150 126 163 176 204 180 182 113 131 114 168 109 204 173 151 188 191 133 154 170 161 254 217 222 195 196 204 196 185 184
77 71 348 42 56 79 92 160 192 76 45 28 76 67 63 167 134 149 183 196 186 142 165 198 123 148 179 353 170 222 197 155 137 223 225 148 272 328 153 179 177 195 186 184 181
82 80 5 1 116 328 355 295 53 126 111 188 69 54 90 32 140 169 178 217 164 150 167 181 132 113 143 354 355 217 220 200 124 99 204 147 250 193 150 171 189 173 180 180 174
106 98 339 38 339 148 161 219 171 153 120 190 100 101 120 82 27 267 169 46 171 159 114 109 156 152 178 194 150 191 205 201 181 143 168 214 212 238 232 220 214 197 185 178 176
43 119 165 178 233 283 161 230 119 59 188 43 73 54 170 99 264 276 86 115 73 134 91 112 168 134 32 137 139 179 188 198 209 205 188 190 211 225 213 218 207 194 180 180 186
131 149 206 154 157 164 209 231 183 91 167 91 190 163 215 147 222 168 341 108 172 128 146 113 217 122 357 355 102 218 210 206 215 218 236 258 252 225 248 192 189 195 178 190 196
195 154 103 203 167 118 238 201 185 160 216 182 200 122 194 182 108 109 100 327 195 165 179 176 144 105 234 359 43 289 205 198 211 214 212 227 234 231 257 239 206 207 199 191 193
Height
766 764 764 760 759 761 763 758 770 766 765 764 769 767 771 776 781 783 785 785 785 785 787 786 784 781 780 781 780 781 807 812 808 802 800 787 796 795 796 802 805 806 811 814 824
763 759 758 759 756 751 754 754 762 766 767 772 773 781 773 775 775 784 782 781 784 787 788 786 784 782 786 784 784 794 813 807 801 797 795 791 793 797 805 809 816 816 814 819 823
759 757 756 754 754 752 755 752 760 762 768 767 777 780 776 779 781 777 778 783 785 787 788 786 785 785 787 785 786 790 809 798 801 797 790 793 797 793 808 816 812 818 820 821 824
762 756 755 753 752 751 752 751 752 762 766 768 774 778 774 776 779 779 780 781 780 784 788 786 785 786 790 793 784 801 798 796 799 797 792 799 794 801 803 807 802 806 811 818 823
762 757 753 752 752 753 751 753 752 758 760 767 771 779 782 783 777 781 782 783 782 790 787 785 785 785 792 790 789 796 798 799 799 799 800 797 805 805 808 804 800 806 812 816 820
759 755 754 752 750 750 751 749 752 754 756 759 771 779 785 784 777 780 782 783 784 783 781 783 781 782 786 790 794 793 799 802 801 802 803 804 808 802 804 805 805 809 813 815 817
758 757 754 752 750 748 744 742 749 754 761 758 761 775 780 779 776 778 778 779 780 780 781 781 780 782 784 795 791 795 807 805 805 805 810 806 815 814 803 804 809 810 812 814 815
754 754 754 752 750 746 747 744 751 754 756 754 765 772 774 776 776 777 780 781 779 779 781 782 782 783 787 792 796 802 808 821 809 808 810 810 825 811 807 806 810 811 811 812 812
753 752 752 749 744 745 744 743 745 748 748 754 763 767 775 776 778 777 781 783 782 782 780 778 780 786 790 805 817 809 825 817 815 806 810 812 820 811 807 808 811 810 812 811 810
751 751 751 747 746 744 744 741 744 749 751 757 766 771 778 773 774 775 780 783 784 782 782 782 786 795 799 809 825 820 815 810 817 813 811 817 819 811 809 809 813 813 811 810 809
748 750 747 748 748 745 743 738 750 753 755 754 757 760 761 768 776 778 780 784 782 784 790 783 795 802 798 797 795 800 801 812 820 813 815 820 820 815 812 813 815 814 812 810 809
746 747 748 748 749 745 742 746 745 749 759 754 759 761 763 768 777 783 782 789 785 790 785 791 798 790 787 791 794 797 801 819 821 816 815 818 821 816 809 807 807 809 810 809 812
745 746 746 747 747 745 745 747 746 748 754 764 764 765 770 772 774 780 783 786 785 787 786 790 784 783 788 793 799 802 807 813 819 818 818 821 826 814 801 800 799 801 801 804 810
742 745 746 746 749 746 746 746 747 749 761 770 767 769 770 767 776 777 777 782 790 790 786 785 782 784 792 795 796 808 799 811 817 823 832 821 838 814 796 798 798 798 800 801 804
740 742 745 745 744 745 746 747 750 752 750 765 764 763 768 769 772 775 776 779 786 790 787 792 787 790 794 793 793 803 804 812 816 827 832 830 839 820 800 801 799 800 801 803 807
739 741 743 746 746 744 746 750 752 759 745 758 757 761 765 764 767 770 775 779 779 788 793 796 791 792 793 795 796 804 811 822 830 840 864 834 831 824 808 796 797 801 804 804 809
739 741 745 747 748 746 748 752 759 752 763 756 751 754 758 765 768 770 774 782 786 804 806 802 803 797 794 802 803 806 820 869 870 881 847 833 833 811 796 791 796 802 805 806 808
739 744 747 746 747 747 750 758 750 756 755 756 747 752 756 762 766 768 775 780 781 781 801 819 831 801 796 801 806 810 811 834 834 846 835 835 829 804 794 799 800 802 804 807 809
743 748 750 752 752 751 757 752 752 754 756 748 748 754 756 757 761 770 775 778 777 776 788 809 812 800 798 798 799 810 817 813 834 873 851 835 815 797 802 802 801 804 806 807 810
746 751 756 756 756 756 765 760 760 761 755 749 746 751 753 754 761 770 772 774 774 772 770 788 811 803 802 799 800 803 807 831 852 867 852 828 812 806 804 802 802 804 806 807 808
749 758 759 758 759 763 773 772 765 762 760 757 759 759 749 750 753 766 768 767 768 774 772 779 794 810 803 803 805 807 811 810 821 835 829 831 815 793 791 795 797 798 800 804 807
755 763 761 761 769 773 769 768 761 763 763 762 764 763 756 746 754 760 765 761 760 766 775 773 789 803 800 798 797 799 804 805 831 820 840 829 815 784 786 790 792 795 796 801 802
762 766 763 762 784 781 767 764 754 758 760 765 766 763 765 765 759 757 757 753 756 763 770 771 794 803 805 814 801 801 799 799 805 817 813 823 810 789 787 790 790 793 795 797 801
764 774 773 769 771 777 767 768 767 759 760 763 765 763 765 770 775 767 755 760 757 759 765 766 780 788 792 793 795 804 796 798 801 841 810 810 796 791 790 791 790 791 793 796 798
766 770 775 772 773 771 766 764 760 765 764 765 765 763 767 770 774 764 759 761 761 762 766 770 793 774 778 779 784 786 786 789 793 793 799 794 791 783 785 782 783 785 789 792 793
766 767 771 776 771 772 769 778 762 762 764 766 764 762 763 764 762 771 766 765 767 766 769 769 790 783 811 786 782 782 784 782 782 785 788 787 785 776 768 773 778 779 782 784 787
762 763 765 772 775 778 779 768 762 759 767 761 759 761 762 761 762 768 768 769 763 763 769 773 791 809 819 800 792 798 792 783 778 775 776 780 768 766 770 768 773 777 775 775 778